[[{"header":{"parameterUnit":"m.s-1","parameterCategory":1,"la1":30.2991,"la2":30.254,"lo1":-89.0895,"lo2":-89.0444,"dy":0.0017,"dx":0.0017,"nx":28,"ny":28,"refTime":"2023-08-05T09:00:00:Z","depth":0,"parameterNumber":2,"parameterNumberName":"U-component_of_WINDS"},"data":[0,0,0,0,0,0,0,0,0,0,0,0,0,0,0,0,0,0,0,0,0,0,0,0,0,0,0,0,0,0,0,0,0,0,0,0,0,0,0,0,0,0,0,0,0,0,0,0,0,0,0,0,0,0,0,0,0,0,3.0388,3.0389,0,3.0526,3.0528,3.0529,3.0511,3.0509,3.0506,3.0504,3.0654,3.066,3.0666,0,0,0,0,0,0,0,0,0,0,0,0,0,3.0114,3.0119,3.0387,3.0389,3.0391,3.0526,3.0528,3.053,3.0511,3.0509,3.0506,3.0503,3.0652,3.0659,3.0667,0,0,0,0,0,0,0,0,0,0,0,0,0,3.0241,3.0121,3.0387,3.0398,3.04,3.0526,3.0528,3.053,3.0512,3.0509,3.0505,3.0502,3.065,3.0659,3.0668,3.0794,0,0,3.0696,3.07,0,0,0,0,0,0,0,0,3.0234,3.0251,3.0395,3.0397,3.04,3.0498,3.0487,3.0619,3.0513,3.047,3.0504,3.05,3.0605,3.0618,3.0652,3.0801,3.0807,3.0697,3.0702,3.0706,3.0709,0,0,0,0,0,0,0,3.0225,3.0245,3.0443,3.0397,3.04,3.0398,3.0412,3.0512,3.0556,3.0473,3.0472,3.0489,3.0606,3.0643,3.0655,3.0809,3.0696,3.0705,3.071,3.0714,3.1071,3.1075,0,0,0,0,0,0,3.0213,3.0238,3.0438,3.0447,3.0307,3.0406,3.0422,3.047,3.0554,3.0564,3.0491,3.0487,3.0629,3.0645,3.066,3.0815,3.0706,3.0715,3.072,3.1067,3.1072,3.1076,0,0,0,0,0,0,3.0207,3.0231,3.0433,3.0342,3.0368,3.0414,3.0469,3.0475,3.0511,3.0568,3.0576,3.052,3.0627,3.0647,3.0761,3.082,3.0719,3.0727,3.1063,3.1069,3.1074,3.1125,0,0,0,0,0,0,3.0199,3.0229,3.0275,3.0343,3.0372,3.0528,3.0472,3.048,3.0526,3.0522,3.0597,3.0607,3.0626,3.0747,3.077,3.0831,3.0734,3.1058,3.1065,3.1072,3.1118,3.1131,3.1143,0,0,0,0,0,3.0189,3.0285,3.0277,3.0302,3.0431,3.0532,3.0549,3.0567,3.0531,3.058,3.0616,3.0604,3.0809,3.0759,3.0784,3.0849,3.1054,3.1063,3.1072,3.1112,3.1129,3.1143,0,0,0,0,0,0,3.0225,3.0294,3.0287,3.0407,3.0463,3.0528,3.059,3.0583,3.0653,3.0647,3.0668,3.0686,3.08,3.0836,3.0778,3.0977,3.0927,3.0942,3.0949,3.0965,3.0978,3.0968,3.0742,0,0,0,0,0,3.0246,3.032,3.0377,3.0478,3.0506,3.0543,3.0588,3.0596,3.0657,3.0681,3.0726,3.0788,3.0866,3.0918,3.0993,3.1122,3.114,3.118,3.1192,3.1202,3.1215,3.1289,3.1308,3.1106,3.1106,3.1106,0,0,3.0292,3.0339,3.0384,3.0486,3.0531,3.0609,3.0564,3.0648,3.0707,3.0695,3.0804,3.084,3.091,3.1032,3.1088,3.1065,3.1275,3.1214,3.1221,3.1229,3.13,3.1319,3.1336,3.1112,3.1111,3.111,0,0,3.0416,3.0457,3.0546,3.0592,3.066,3.0684,3.0705,3.0772,3.0794,3.0903,3.0897,3.0968,3.1102,3.1153,3.1197,3.134,3.1333,3.1364,3.1431,3.1502,3.1518,3.1532,3.1586,3.1604,3.1377,3.1377,3.1377,0,3.0465,3.058,3.0594,3.0679,3.0725,3.0715,3.0807,3.0852,3.0942,3.0975,3.0947,3.1116,3.1162,3.1297,3.1332,3.1367,3.1394,3.1356,3.1514,3.1529,3.1542,3.1593,3.1613,3.138,3.138,3.1379,3.1379,0,3.0638,3.0718,3.0782,3.0867,3.092,3.1008,3.1038,3.1091,3.1095,3.1123,3.1236,3.1291,3.1378,3.1411,3.1417,3.1548,3.1531,3.1509,3.146,3.1565,3.1613,3.1633,3.1385,3.1384,3.1383,3.1382,0,0,3.0789,3.0879,3.0903,3.0942,3.1016,3.108,3.1169,3.1251,3.1297,3.136,3.1437,3.155,3.153,3.1579,3.1591,3.1653,3.1766,3.1623,3.1625,3.1649,3.1916,3.1933,3.1955,3.176,3.1764,3.1767,3.191,0,3.0921,3.1075,3.1091,3.123,3.1305,3.1298,3.1376,3.1431,3.146,3.153,3.1563,3.1644,3.161,3.164,3.1701,3.1739,3.182,3.1729,3.1835,3.1839,3.1819,3.198,3.1999,3.2131,3.1929,3.1932,3.1935,0,3.1095,3.1161,3.1307,3.1372,3.1404,3.1473,3.1551,3.1617,3.1681,3.1698,3.1753,3.1756,3.1851,3.1797,3.193,3.1867,3.1912,3.1937,3.1943,3.1955,3.1894,3.1998,3.2174,3.2194,3.1964,3.1962,3.196,0,3.1193,3.1318,3.1422,3.1455,3.1533,3.1582,3.1617,3.1677,3.1726,3.1795,3.1828,3.1907,3.1952,3.2015,3.2041,3.1999,3.2172,3.212,3.2191,3.2191,3.2229,3.2227,3.2416,3.2256,3.2255,3.2255,3.2254,0,3.1339,3.143,3.1466,3.1531,3.1632,3.165,3.1752,3.1785,3.1839,3.1911,3.191,3.1979,3.2008,3.2082,3.2104,3.2211,3.2231,3.2249,3.2254,3.225,3.2248,3.2281,3.2273,3.226,3.2259,3.2258,3.2257,0,3.1466,3.1493,3.1607,3.167,3.1689,3.1761,3.1817,3.1881,3.1908,3.2,3.2023,3.2067,3.2154,3.2186,3.2293,3.2307,3.2432,3.2429,3.241,3.2412,3.2482,3.2475,3.27,3.2731,3.2548,3.255,3.2551,0,3.1558,3.1627,3.1698,3.1745,3.1782,3.1858,3.1908,3.1929,3.1981,3.2059,3.2114,3.22,3.227,3.2411,3.2454,3.2537,3.2536,3.2609,3.2549,3.2543,3.254,3.2535,3.2543,3.2621,3.2623,3.2624,3.2626,0,3.172,3.173,3.18,3.1876,3.1935,3.1996,3.2056,3.2095,3.2126,3.2185,3.2273,3.2327,3.2436,3.2522,3.2607,3.2646,3.2643,3.2644,3.2665,3.2663,3.2649,3.2659,3.2443,3.2639,3.2638,3.2637,3.2636,3.2636,3.1834,3.1895,3.1954,3.2033,3.208,3.2136,3.2199,3.2233,3.2306,3.2394,3.2403,3.2498,3.2562,3.2675,3.2718,3.2794,3.2775,3.2805,3.2813,3.282,3.2826,3.2636,3.281,3.2809,3.2809,3.2809,3.2809,0,3.1997,3.2034,3.2106,3.2189,3.2252,3.2239,3.2305,3.2359,3.2442,3.2501,3.2569,3.2672,3.2756,3.2805,3.289,3.2942,3.2943,3.2964,3.2961,3.2971,3.2838,3.2812,3.2962,3.2962,3.2962,3.2962,3.2962,3.2962,3.2089,3.2193,3.221,3.2338,3.2376,3.2467,3.2506,3.2558,3.2605,3.2719,3.2787,3.2818,3.2875,3.2963,3.3041,3.3054,3.3086,3.3109,3.3121,3.2996,3.298,3.2965,3.2941,3.3116,3.3116,3.3247,3.3248,3.3249]},{"header":{"parameterUnit":"m.s-1","parameterCategory":1,"la1":30.2991,"la2":30.254,"lo1":-89.0895,"lo2":-89.0444,"dy":0.0017,"dx":0.0017,"nx":28,"ny":28,"refTime":"2023-08-05T09:00:00:Z","depth":0,"parameterNumber":3,"parameterNumberName":"V-component_of_WINDS"},"data":[0,0,0,0,0,0,0,0,0,0,0,0,0,0,0,0,0,0,0,0,0,0,0,0,0,0,0,0,0,0,0,0,0,0,0,0,0,0,0,0,0,0,0,0,0,0,0,0,0,0,0,0,0,0,0,0,0,0,2.7718,2.7718,0,2.7752,2.7752,2.7753,2.7752,2.7752,2.7752,2.7751,2.7784,2.7785,2.7786,0,0,0,0,0,0,0,0,0,0,0,0,0,2.7648,2.7649,2.7718,2.7718,2.7719,2.7752,2.7752,2.7753,2.7753,2.7752,2.7751,2.7751,2.7783,2.7785,2.7786,0,0,0,0,0,0,0,0,0,0,0,0,0,2.768,2.765,2.7718,2.7723,2.7723,2.7752,2.7752,2.7753,2.7753,2.7752,2.7751,2.7751,2.7783,2.7785,2.7786,2.7812,0,0,2.7792,2.7793,0,0,0,0,0,0,0,0,2.7678,2.7682,2.7721,2.7722,2.7723,2.7747,2.774,2.7772,2.7753,2.7741,2.7751,2.775,2.7772,2.7775,2.7782,2.7813,2.7814,2.7792,2.7794,2.7794,2.7795,0,0,0,0,0,0,0,2.7676,2.7681,2.7731,2.7722,2.7723,2.7722,2.7725,2.7746,2.776,2.7742,2.7742,2.7747,2.7772,2.7781,2.7783,2.7815,2.7792,2.7794,2.7795,2.7796,2.7864,2.7865,0,0,0,0,0,0,2.7673,2.7679,2.773,2.7732,2.7699,2.7723,2.7728,2.774,2.776,2.7762,2.7747,2.7747,2.7778,2.7781,2.7784,2.7813,2.7794,2.7796,2.7797,2.7864,2.7865,2.7865,0,0,0,0,0,0,2.7672,2.7678,2.7729,2.7706,2.7712,2.7725,2.7739,2.7741,2.775,2.7763,2.7765,2.7753,2.7777,2.7782,2.7804,2.7814,2.7797,2.7799,2.7863,2.7864,2.7865,2.7872,0,0,0,0,0,0,2.767,2.7677,2.7688,2.7706,2.7713,2.7749,2.774,2.7742,2.7753,2.7753,2.777,2.7772,2.7777,2.7801,2.7806,2.7816,2.78,2.7862,2.7863,2.7865,2.787,2.7873,2.7874,0,0,0,0,0,2.7667,2.7689,2.7689,2.7695,2.7727,2.775,2.7754,2.776,2.7754,2.7764,2.7772,2.7771,2.7812,2.7804,2.7809,2.782,2.7862,2.7863,2.7865,2.787,2.7872,2.7874,0,0,0,0,0,0,2.7671,2.7691,2.7691,2.7719,2.7733,2.775,2.7763,2.7763,2.7778,2.7777,2.7783,2.7787,2.7809,2.7817,2.7807,2.7844,2.7836,2.7839,2.7838,2.7841,2.7843,2.784,2.7802,0,0,0,0,0,2.7675,2.7693,2.7709,2.7732,2.7739,2.775,2.776,2.7763,2.7777,2.7783,2.7793,2.7806,2.7821,2.7832,2.7847,2.7872,2.7874,2.7882,2.7884,2.7885,2.7887,2.7898,2.7901,2.787,2.787,2.787,0,0,2.7684,2.7697,2.7708,2.7733,2.7744,2.7761,2.7755,2.7773,2.7785,2.7786,2.7807,2.7815,2.7829,2.7853,2.7863,2.786,2.7896,2.7887,2.7888,2.7889,2.79,2.7903,2.7906,2.7871,2.7871,2.7871,0,0,2.7708,2.7721,2.774,2.7751,2.7768,2.7774,2.7779,2.7795,2.7801,2.7823,2.7822,2.7836,2.7863,2.7873,2.7881,2.7907,2.7905,2.7911,2.7921,2.7932,2.7935,2.7937,2.7944,2.7947,2.7913,2.7913,2.7913,0,2.7717,2.7743,2.775,2.7768,2.7778,2.778,2.7798,2.7808,2.7828,2.7834,2.783,2.7863,2.7873,2.7897,2.7903,2.7911,2.7914,2.7909,2.7934,2.7936,2.7938,2.7945,2.7948,2.7914,2.7914,2.7914,2.7914,0,2.7751,2.777,2.7783,2.7803,2.7814,2.7833,2.7841,2.7851,2.7853,2.786,2.788,2.7892,2.7909,2.7915,2.7917,2.7939,2.7936,2.7933,2.7925,2.7942,2.7948,2.7951,2.7915,2.7914,2.7914,2.7914,0,0,2.778,2.7802,2.7806,2.7814,2.7832,2.7845,2.7862,2.7879,2.7887,2.79,2.7913,2.7936,2.7932,2.7942,2.7945,2.7955,2.7971,2.795,2.795,2.7952,2.7993,2.7994,2.7997,2.7971,2.7971,2.7972,2.7991,0,2.7804,2.7836,2.7841,2.7868,2.7883,2.7884,2.7899,2.791,2.7916,2.7929,2.7935,2.795,2.7945,2.7951,2.796,2.7967,2.7979,2.7966,2.7981,2.7982,2.7977,2.8001,2.8003,2.8021,2.7994,2.7995,2.7995,0,2.7837,2.7851,2.788,2.7893,2.7899,2.7913,2.7927,2.794,2.7952,2.7955,2.7965,2.7967,2.7982,2.7974,2.7995,2.7986,2.7992,2.7996,2.7997,2.7998,2.7989,2.8001,2.8027,2.8029,2.7999,2.7999,2.7999,0,2.7852,2.7879,2.7898,2.7905,2.7922,2.793,2.7938,2.7949,2.7958,2.797,2.7975,2.7989,2.7996,2.8006,2.8011,2.8005,2.8031,2.8023,2.8032,2.8032,2.8037,2.8037,2.8063,2.8044,2.8044,2.8043,2.8043,0,2.7878,2.7895,2.7905,2.7917,2.7935,2.794,2.7958,2.7964,2.7974,2.7986,2.7988,2.7999,2.8005,2.8016,2.802,2.8035,2.8039,2.8041,2.8041,2.804,2.804,2.8044,2.8042,2.8044,2.8044,2.8044,2.8044,0,2.7898,2.7906,2.7927,2.794,2.7944,2.7956,2.7967,2.7978,2.7984,2.7999,2.8002,2.8011,2.8024,2.803,2.8046,2.8048,2.8066,2.8066,2.8062,2.8062,2.807,2.8068,2.8099,2.8103,2.8082,2.8082,2.8082,0,2.7914,2.7926,2.7941,2.7949,2.7957,2.797,2.7979,2.7984,2.7993,2.8007,2.8015,2.8029,2.804,2.8061,2.8067,2.8079,2.8079,2.8089,2.8081,2.8078,2.8077,2.8076,2.8076,2.809,2.809,2.809,2.8091,0,2.7939,2.7942,2.7955,2.7969,2.7979,2.799,2.8001,2.8007,2.8014,2.8024,2.8037,2.8046,2.8062,2.8075,2.8087,2.8093,2.8092,2.8093,2.8095,2.8094,2.809,2.8091,2.8064,2.8092,2.8092,2.8092,2.8092,2.8092,2.7956,2.7967,2.7978,2.7992,2.8,2.801,2.802,2.8027,2.8038,2.8052,2.8055,2.8069,2.8078,2.8095,2.8101,2.8111,2.8108,2.8112,2.8113,2.8114,2.8114,2.8089,2.8113,2.8113,2.8113,2.8113,2.8113,0,2.798,2.7987,2.8,2.8015,2.8025,2.8024,2.8036,2.8044,2.8057,2.8066,2.8076,2.8091,2.8103,2.811,2.8122,2.8129,2.8128,2.8131,2.813,2.8131,2.8116,2.8112,2.8131,2.8131,2.8131,2.8131,2.8131,2.8131,2.7994,2.8011,2.8015,2.8035,2.8042,2.8056,2.8063,2.8071,2.8078,2.8095,2.8105,2.8109,2.8117,2.8129,2.814,2.8141,2.8145,2.8148,2.8149,2.8134,2.8132,2.8131,2.8127,2.8149,2.8149,2.8163,2.8163,2.8163]}]]